Weather History for Greenville, NC

Change the Weather History Date:

Monday, December 31, 2012

  Actual Average Record
Temperature  
Mean Temperature 36 °F -  
Max Temperature 51 °F 55 °F 75 °F (1969)
Min Temperature 21 °F 34 °F 12 °F (1983)
Degree Days  
Heating Degree Days 29    
Moisture  
Dew Point 25 °F    
Average Humidity 67    
Maximum Humidity 100    
Minimum Humidity 32    
Precipitation  
Precipitation 0.00 in - - ()
Sea Level Pressure  
Sea Level Pressure 30.29 in    
Wind  
Wind Speed 2 mph (SW)    
Max Wind Speed 15 mph    
Max Gust Speed 23 mph    
Visibility 10 miles    
Events      
Averages and records for this station are not official NWS values.
T = Trace of Precipitation, MM = Missing Value Source: NWS Daily Summary

Daily Weather History Graph

Daily Weather History Graph

Search for Another Location

Airport:

Trip Planner

Search our weather history database for the weather conditions in past years. The results will help you decide how hot, cold, wet, or windy it might be!

Date:

Astronomy

Dec. 31, 2012 Rise Set
Actual Time 7:19 AM EST 5:06 PM EST
Civil Twilight 6:50 AM EST 5:35 PM EST
Nautical Twilight 6:18 AM EST 6:06 PM EST
Astronomical Twilight 5:47 AM EST 6:37 PM EST
Moon 8:27 PM EST (12/31) 9:06 AM EST (12/31)
Length of Visible Light 10h 44m
Length of Day
9h 47m
Waning Gibbous, 90% of the Moon is Illuminated
Dec 31
Waning Gibbous
Jan 4
Last Quarter
Jan 11
New
Jan 18
First Quarter
Jan 26
Full

Hourly Weather History & Observations

Time (EST) Temp. Windchill Dew Point Humidity Pressure Visibility Wind Dir Wind Speed Gust Speed Precip Events Conditions
12:15 AM 24.8 °F - 21.2 °F 86% 30.39 in 10.0 mi Calm Calm - N/A   Clear
12:35 AM 28.4 °F - 23.0 °F 80% 30.37 in 10.0 mi Calm Calm - N/A   Clear
12:55 AM 28.4 °F - 23.0 °F 80% 30.37 in 10.0 mi Calm Calm - N/A   Clear
1:15 AM 23.0 °F - 21.2 °F 93% 30.37 in 10.0 mi Calm Calm - N/A   Clear
1:35 AM 26.6 °F - 23.0 °F 86% 30.38 in 10.0 mi Calm Calm - N/A   Clear
1:55 AM 26.6 °F - 23.0 °F 86% 30.38 in 10.0 mi Calm Calm - N/A   Clear
2:15 AM 24.8 °F - 23.0 °F 93% 30.37 in 10.0 mi Calm Calm - N/A   Clear
2:55 AM 24.8 °F - 23.0 °F 93% 30.37 in 10.0 mi Calm Calm - N/A   Clear
3:15 AM 24.8 °F - 23.0 °F 93% 30.37 in 10.0 mi Calm Calm - N/A   Clear
3:35 AM 23.0 °F - 23.0 °F 100% 30.37 in 10.0 mi Calm Calm - N/A   Clear
3:55 AM 23.0 °F - 23.0 °F 100% 30.37 in 7.0 mi Calm Calm - N/A   Clear
4:15 AM 23.0 °F - 23.0 °F 100% 30.38 in 7.0 mi Calm Calm - N/A   Clear
4:35 AM 23.0 °F - 23.0 °F 100% 30.37 in 7.0 mi Calm Calm - N/A   Clear
4:55 AM 23.0 °F - 23.0 °F 100% 30.36 in 7.0 mi Calm Calm - N/A   Clear
5:15 AM 23.0 °F - 23.0 °F 100% 30.37 in 7.0 mi Calm Calm - N/A   Clear
5:35 AM 21.2 °F - 21.2 °F 100% 30.37 in 5.0 mi Calm Calm - N/A   Clear
5:55 AM 23.0 °F - 23.0 °F 100% 30.37 in 10.0 mi Calm Calm - N/A   Clear
6:15 AM 23.0 °F - 23.0 °F 100% 30.37 in 5.0 mi Calm Calm - N/A   Clear
6:35 AM 23.0 °F - 21.2 °F 93% 30.38 in 5.0 mi Calm Calm - N/A   Clear
6:55 AM 23.0 °F - 23.0 °F 100% 30.38 in 10.0 mi Calm Calm - N/A   Clear
7:15 AM 23.0 °F - 23.0 °F 100% 30.38 in 10.0 mi Calm Calm - N/A   Clear
7:35 AM 23.0 °F - 21.2 °F 93% 30.38 in 10.0 mi Calm Calm - N/A   Clear
7:55 AM 26.6 °F - 24.8 °F 93% 30.37 in 10.0 mi Calm Calm - N/A   Clear
8:15 AM 28.4 °F - 24.8 °F 86% 30.37 in 10.0 mi Calm Calm - N/A   Clear
8:35 AM 30.2 °F - 24.8 °F 80% 30.37 in 10.0 mi Calm Calm - N/A   Clear
8:55 AM 30.2 °F - 24.8 °F 80% 30.38 in 10.0 mi Calm Calm - N/A   Clear
9:15 AM 32.0 °F - 24.8 °F 75% 30.38 in 10.0 mi Calm Calm - N/A   Clear
9:35 AM 32.0 °F - 24.8 °F 75% 30.39 in 10.0 mi Calm Calm - N/A   Clear
9:55 AM 33.8 °F - 24.8 °F 70% 30.38 in 10.0 mi Calm Calm - N/A   Clear
10:15 AM 35.6 °F 31.7 °F 23.0 °F 60% 30.38 in 10.0 mi SW 4.6 mph - N/A   Clear
10:35 AM 35.6 °F 30.7 °F 23.0 °F 60% 30.39 in 10.0 mi WSW 5.8 mph - N/A   Clear
10:55 AM 37.4 °F 32.8 °F 23.0 °F 56% 30.37 in 10.0 mi SW 5.8 mph - N/A   Clear
11:15 AM 37.4 °F 32.8 °F 21.2 °F 52% 30.36 in 10.0 mi SW 5.8 mph - N/A   Clear
11:35 AM 39.2 °F 33.6 °F 19.4 °F 45% 30.35 in 10.0 mi SW 8.1 mph - N/A   Clear
11:55 AM 41.0 °F 36.4 °F 21.2 °F 45% 30.33 in 10.0 mi SW 6.9 mph - N/A   Clear
12:15 PM 42.8 °F 38.6 °F 23.0 °F 46% 30.32 in 10.0 mi SSW 6.9 mph - N/A   Clear
12:35 PM 42.8 °F 39.3 °F 23.0 °F 46% 30.30 in 10.0 mi SW 5.8 mph - N/A   Clear
12:55 PM 44.6 °F 38.8 °F 24.8 °F 46% 30.28 in 10.0 mi WSW 11.5 mph - N/A   Clear
1:15 PM 48.2 °F - 24.8 °F 40% 30.26 in 10.0 mi SW 10.4 mph 16.1 mph N/A   Clear
1:35 PM 46.4 °F 42.9 °F 24.8 °F 43% 30.25 in 10.0 mi WSW 6.9 mph - N/A   Clear
1:55 PM 50.0 °F - 24.8 °F 37% 30.25 in 10.0 mi WSW 13.8 mph 18.4 mph N/A   Clear
2:15 PM 50.0 °F - 24.8 °F 37% 30.24 in 10.0 mi WSW 9.2 mph 16.1 mph N/A   Clear
2:35 PM 51.8 °F - 23.0 °F 33% 30.24 in 10.0 mi WSW 15.0 mph 19.6 mph N/A   Clear
2:55 PM 50.0 °F - 21.2 °F 32% 30.23 in 10.0 mi WSW 12.7 mph 23.0 mph N/A   Clear
3:15 PM 50.0 °F - 23.0 °F 35% 30.24 in 10.0 mi SW 12.7 mph 20.7 mph N/A   Clear
3:35 PM 48.2 °F - 24.8 °F 40% 30.24 in 10.0 mi WSW 8.1 mph - N/A   Clear
3:55 PM 50.0 °F - 26.6 °F 40% 30.22 in 10.0 mi SW 6.9 mph - N/A   Clear
4:15 PM 50.0 °F - 24.8 °F 37% 30.23 in 10.0 mi WSW 11.5 mph 17.3 mph N/A   Clear
4:35 PM 48.2 °F - 24.8 °F 40% 30.21 in 10.0 mi SW 9.2 mph - N/A   Clear
4:55 PM 46.4 °F 42.9 °F 24.8 °F 43% 30.20 in 10.0 mi SSW 6.9 mph - N/A   Clear
5:35 PM 46.4 °F 43.5 °F 24.8 °F 43% 30.21 in 10.0 mi SW 5.8 mph - N/A   Clear
5:55 PM 46.4 °F 43.5 °F 24.8 °F 43% 30.19 in 10.0 mi SW 5.8 mph - N/A   Clear
6:15 PM 44.6 °F 43.1 °F 24.8 °F 46% 30.21 in 10.0 mi WSW 3.5 mph - N/A   Clear
6:35 PM 42.8 °F - 24.8 °F 49% 30.21 in 10.0 mi Calm Calm - N/A   Clear
6:55 PM 42.8 °F 41.1 °F 24.8 °F 49% 30.22 in 10.0 mi SW 3.5 mph - N/A   Clear
7:15 PM 42.8 °F - 26.6 °F 53% 30.21 in 10.0 mi Calm Calm - N/A   Mostly Cloudy
7:35 PM 44.6 °F - 28.4 °F 53% 30.19 in 10.0 mi Calm Calm - N/A   Overcast
7:55 PM 44.6 °F - 26.6 °F 49% 30.20 in 10.0 mi Calm Calm - N/A   Overcast
8:15 PM 44.6 °F - 28.4 °F 53% 30.20 in 10.0 mi Calm Calm - N/A   Overcast
8:35 PM 44.6 °F 41.4 °F 28.4 °F 53% 30.17 in 10.0 mi SSW 5.8 mph - N/A   Overcast
8:55 PM 44.6 °F 43.1 °F 28.4 °F 53% 30.18 in 10.0 mi WSW 3.5 mph - N/A   Overcast
9:15 PM 44.6 °F 43.1 °F 28.4 °F 53% 30.18 in 10.0 mi SW 3.5 mph - N/A   Overcast
9:35 PM 44.6 °F 43.1 °F 30.2 °F 57% 30.17 in 10.0 mi SW 3.5 mph - N/A   Mostly Cloudy
10:15 PM 44.6 °F 42.2 °F 32.0 °F 61% 30.16 in 10.0 mi SW 4.6 mph - N/A   Overcast
10:35 PM 44.6 °F 41.4 °F 32.0 °F 61% 30.16 in 10.0 mi SW 5.8 mph - N/A   Mostly Cloudy
11:15 PM 44.6 °F 42.2 °F 33.8 °F 66% 30.16 in 10.0 mi SW 4.6 mph - N/A   Scattered Clouds
11:35 PM 44.6 °F 41.4 °F 33.8 °F 66% 30.15 in 10.0 mi SSW 5.8 mph - N/A   Clear
11:55 PM 44.6 °F 41.4 °F 33.8 °F 66% 30.13 in 10.0 mi SW 5.8 mph - N/A   Clear